Strona główna
METAR-TAF:

METAR-TAF

Lotnisko :

Custer Airport

Monroe, Michigan, Stany Zjednoczone

Szerokość geograficzna: 41-56-24N, Długość geograficzna: 083-26-05W, wysokość: 188 m

Aktualna obserwacja pogody

Raport powstał 13 minut temu, godzina 01:55 UTC
Wiatr 4 kt od zachodnio-południowy zachód
Temperatura -1°C
Wilgotność 86%
Ciśnienie 1020 hPa
Widzialność: 11.3 km
bezchmurnie

METAR: KTTF 170155Z AUTO 25004KT 7SM CLR M01/M03 A3012 RMK AO2 T10121030

czas: 21:08 (02:08 UTC)


TAF: brakujący

Obserwacja i prognoza pogody dla ponad 4000 lotnisk (raport METAR i TAF).

Dostępne stacje oznaczono żółtymi i czerwonymi punktami na mapie.

Najedź kursorem aby zobaczyć nazwę stacji.

Kliknij aby zobaczyć obserwacje i prognozy pogody.

Aby zmienić mapę: kliknij na zielony przycisk z czarnym krzyżykiem, aby powiększyć; na zielony przycisk z myślnikiem, aby pomniejszyć; na zielone strzałki, aby przejść do map sąsiednich.


METAR-TAF: